GFSSGP_850_spd_015.txt.gz
Wind_Speed
8 7 6 4 0 3 5 4 4 8 5 3 6 6 8 7 3 8 22 19 22 22 23 24 24 21 21 22 21 22 22 22 21 21 20 18 16 13 10 9 8 7 7 7 7 7 8 9 8
12 6 1 1 3 6 4 2 9 4 10 14 12 7 6 5 7 18 20 24 21 23 21 19 20 19 19 20 20 20 20 20 20 20 17 14 12 10 8 7 7 5 5 5 5 5 7 9 9
7 4 1 2 2 6 4 5 11 15 8 4 5 9 5 6 14 18 21 22 21 21 19 18 18 18 19 19 19 19 21 20 19 16 14 12 12 10 7 6 5 4 4 4 4 5 7 8 8
5 2 2 3 7 5 4 11 16 13 7 6 12 10 8 9 11 19 23 23 21 21 19 17 18 18 19 18 19 20 22 18 16 15 14 13 10 8 6 5 4 2 3 3 4 6 7 7 7
3 1 2 4 5 5 8 14 10 6 7 9 5 7 11 5 15 23 24 23 22 21 19 18 18 17 18 18 19 21 20 15 14 13 12 10 8 6 5 3 2 2 3 4 6 8 9 7 6
2 1 2 4 4 5 8 16 7 3 9 12 15 14 9 8 20 24 23 22 21 19 18 18 17 16 17 19 19 20 17 13 14 10 9 8 7 4 2 0 1 2 3 6 7 7 8 7 6
1 1 3 4 4 5 6 13 5 7 9 7 16 8 8 15 21 23 23 21 19 19 19 19 18 17 18 18 17 16 14 12 11 9 9 8 6 4 2 1 2 2 4 6 6 6 7 6 5
1 1 6 3 6 4 10 10 8 9 4 15 14 7 10 21 23 23 22 20 18 18 18 18 19 18 19 17 16 15 14 13 12 11 9 8 5 4 3 1 4 4 4 6 5 4 5 6 5
3 2 5 7 9 6 14 9 7 6 14 6 8 9 15 26 25 23 21 18 17 17 17 18 19 20 18 18 16 14 13 12 12 11 9 7 6 4 2 3 4 6 5 4 5 3 5 5 4
5 2 6 6 9 10 18 13 13 5 14 6 5 12 24 27 26 24 23 21 19 19 20 20 20 20 20 17 16 15 13 12 12 10 9 8 7 6 5 4 3 4 3 4 4 3 4 4 3
4 4 4 3 10 16 20 14 11 8 13 13 15 22 30 28 26 24 23 23 22 21 21 21 19 19 19 18 16 14 13 12 10 9 9 9 8 6 4 3 3 3 3 3 3 2 3 4 4
7 7 6 7 12 19 20 18 11 15 6 13 17 28 29 27 26 24 23 24 24 23 21 21 21 21 20 17 16 14 14 12 12 10 10 11 9 7 5 4 5 5 4 4 5 6 7 8 9
6 6 8 8 17 17 20 18 11 14 5 11 19 28 29 26 25 23 22 22 23 23 21 21 21 20 19 18 17 16 15 15 13 13 12 12 10 8 7 8 9 8 7 7 7 8 9 10 12
3 1 3 11 15 15 18 11 10 11 9 16 24 30 28 26 24 21 21 23 25 23 21 19 18 18 17 18 16 16 15 14 15 14 12 12 12 11 11 10 10 10 8 8 10 11 12 12 11
9 6 8 11 15 8 19 8 13 13 15 19 23 28 26 25 23 23 25 23 22 22 20 20 18 17 18 17 17 14 13 13 13 14 14 13 14 13 13 12 11 8 9 10 12 13 13 12 11
4 5 6 8 14 11 16 13 12 18 21 21 25 26 25 24 25 24 24 23 21 21 22 19 19 18 17 18 17 16 14 13 13 15 16 15 15 14 12 11 11 10 11 11 12 12 11 12 12
4 8 10 10 12 9 13 6 13 21 22 23 26 26 25 24 25 26 25 26 23 20 21 22 20 18 15 16 15 15 16 17 15 15 16 14 14 14 13 11 11 12 11 11 11 10 11 13 13
12 7 9 9 13 10 14 6 9 19 23 24 25 25 26 27 29 26 26 26 26 23 22 21 22 19 17 16 17 18 17 17 17 17 18 17 16 15 13 12 10 9 10 10 10 13 13 10 9
14 14 16 8 10 11 12 12 6 17 20 22 23 25 27 29 28 26 28 28 29 29 26 26 24 23 22 20 20 20 20 17 17 16 15 15 14 13 13 11 10 10 8 11 13 12 10 7 9
14 17 14 8 11 12 10 13 8 17 24 26 26 26 27 27 26 28 29 30 32 31 29 27 27 23 25 23 21 20 17 17 16 16 16 15 13 12 11 10 9 8 11 12 7 5 7 8 7
13 18 15 13 10 4 8 14 12 13 21 25 26 26 26 28 28 28 30 32 32 33 32 29 25 23 26 25 23 22 20 19 18 16 15 12 11 11 10 9 10 11 9 3 4 7 7 3 6
17 13 16 14 13 13 12 12 12 17 18 22 28 30 30 29 28 27 29 33 34 33 31 31 26 24 26 26 26 24 22 17 14 12 10 11 12 11 10 9 10 9 5 4 5 5 5 5 3
10 11 16 17 18 7 10 7 11 10 17 23 31 34 35 33 31 31 31 32 34 31 33 33 29 27 28 27 27 24 23 20 16 14 13 14 14 14 13 11 9 7 6 5 5 4 4 4 4
10 11 6 5 9 9 16 14 11 9 16 24 28 34 37 35 34 33 31 32 34 34 34 34 33 30 30 29 29 28 25 21 18 16 14 15 16 17 15 12 10 9 9 7 5 5 4 4 4
12 13 7 9 7 9 9 12 16 11 19 22 20 35 39 36 34 34 33 35 38 38 37 36 36 34 32 33 33 31 27 23 19 16 15 15 15 15 14 12 11 11 10 8 6 5 4 3 4
19 21 10 16 12 12 5 11 8 20 27 18 19 19 28 36 36 36 41 40 40 40 37 36 39 37 36 36 37 34 30 27 24 21 18 17 16 13 13 12 12 12 11 8 7 7 7 7 7
11 13 16 9 2 7 7 6 11 14 13 13 22 20 27 33 39 42 39 42 41 40 38 38 40 39 39 40 38 37 34 31 27 23 18 17 17 16 15 13 12 12 11 11 11 11 11 11 10
13 14 11 8 18 17 8 5 6 6 11 15 12 24 30 33 35 37 42 46 44 41 40 40 39 39 42 42 42 41 38 33 28 25 23 17 18 18 16 16 14 13 13 12 12 12 13 12 12
8 9 3 7 8 15 15 13 8 13 13 12 15 26 28 31 35 38 42 48 46 43 43 44 43 42 41 45 46 45 43 35 31 31 23 23 19 19 17 16 15 14 14 13 13 13 14 14 14
21 20 18 11 12 6 10 13 6 14 14 13 18 16 19 26 31 33 32 34 39 46 45 45 46 47 45 45 48 49 47 41 40 34 31 23 22 18 16 16 15 16 15 15 15 14 15 15 11

GFSSGP_850_spd_021.txt.gz
Wind_Speed
9 10 14 10 5 3 5 10 13 12 13 15 10 13 10 7 5 12 19 20 22 22 24 24 25 24 23 23 23 22 23 22 21 19 16 14 13 12 11 11 11 10 10 10 11 12 12 11 11
13 11 13 12 2 4 8 14 13 13 18 15 11 6 16 18 28 27 24 23 23 22 19 18 21 19 20 21 21 20 21 21 19 16 14 13 10 9 9 9 9 9 9 10 11 11 11 10 10
12 12 16 7 10 0 10 9 16 15 8 8 8 8 13 24 27 23 25 24 22 20 18 17 19 18 19 20 20 19 19 19 17 14 12 10 7 7 8 8 8 9 9 10 10 10 10 10 9
10 15 16 7 11 12 14 14 13 11 10 8 19 15 27 22 20 25 24 22 19 17 15 18 17 17 18 18 18 18 18 17 15 11 10 9 7 7 6 6 7 7 7 8 9 10 8 8 8
12 16 9 8 10 11 12 12 11 11 12 12 24 22 23 16 23 25 22 20 18 16 14 15 16 17 17 17 17 17 16 15 12 10 10 8 6 5 5 5 6 5 6 8 9 9 8 7 7
18 13 4 10 10 8 11 6 6 15 11 9 22 23 17 19 23 21 19 18 19 15 16 15 17 16 16 16 18 17 15 14 12 11 8 6 5 4 4 5 5 5 6 7 8 8 8 6 6
17 13 8 13 9 10 9 7 7 12 12 17 22 17 18 22 21 21 19 19 20 18 16 14 14 16 17 17 18 16 13 12 11 8 6 4 3 2 3 5 6 6 6 6 6 6 7 6 6
21 12 9 9 13 12 10 5 11 12 13 18 17 11 22 25 23 22 20 20 18 16 17 17 13 13 13 16 17 13 10 11 8 6 6 4 1 4 6 6 6 7 6 6 6 4 5 6 7
14 9 7 8 8 14 11 12 8 10 16 11 6 18 24 25 24 23 21 19 19 16 15 15 14 13 13 12 13 13 10 10 7 6 4 4 2 5 7 8 9 6 6 5 7 5 7 6 9
11 6 3 9 10 17 12 12 12 13 15 13 10 23 25 26 25 23 22 20 19 16 15 17 15 14 12 11 11 8 7 6 5 4 6 2 4 6 7 7 8 8 9 6 10 7 7 7 5
17 3 6 12 8 20 13 12 12 10 12 17 16 23 27 26 24 22 21 19 19 18 16 17 16 15 14 14 7 8 7 8 7 9 8 5 5 4 6 5 7 5 7 9 9 7 5 5 5
17 26 5 7 7 8 13 15 11 7 15 18 17 23 27 25 24 22 21 19 19 18 17 17 17 16 16 11 10 9 9 8 8 7 9 7 5 5 6 6 6 5 5 9 8 10 7 7 10
14 12 4 5 9 10 17 14 12 11 9 16 19 24 26 25 23 21 20 20 20 20 19 18 18 17 16 14 11 11 10 10 9 8 9 8 7 8 7 7 7 9 8 8 6 8 9 8 9
13 15 7 4 9 10 9 16 11 15 12 17 20 24 25 24 24 22 22 21 21 21 20 19 18 17 16 15 12 12 11 10 10 10 10 12 9 8 10 11 9 7 9 11 8 9 8 8 9
16 9 12 10 11 12 12 16 15 21 15 18 20 23 24 24 24 24 23 22 22 21 20 20 19 18 17 16 14 13 12 11 11 12 11 11 16 14 12 13 10 10 10 11 12 7 7 9 8
18 17 16 14 14 12 18 16 17 20 19 19 19 22 24 25 25 24 23 23 22 21 21 20 18 18 17 16 15 14 13 13 12 11 10 11 13 13 11 9 8 9 8 10 8 7 7 8 8
15 17 20 15 16 13 16 15 17 19 20 20 19 22 24 25 25 25 24 24 23 22 22 21 20 19 18 17 16 14 13 14 12 13 11 13 13 14 9 9 10 11 10 11 6 3 6 8 9
22 21 20 18 16 13 15 5 17 18 20 20 21 21 24 25 27 26 25 24 23 22 22 22 21 20 19 18 19 16 20 14 13 13 11 13 11 12 12 9 13 12 6 5 4 6 9 8 5
23 21 18 15 24 19 17 14 13 17 19 19 24 23 25 26 26 26 26 25 24 23 22 23 22 22 20 19 16 13 12 12 14 15 17 15 12 11 13 6 9 7 6 5 6 7 7 4 4
28 23 17 13 21 20 18 19 18 17 16 19 22 26 26 26 27 27 27 28 27 26 24 24 24 24 23 18 17 16 13 13 13 14 10 10 12 9 10 10 5 7 4 7 6 4 3 5 4
27 26 18 18 19 17 16 18 19 17 22 20 20 23 27 29 30 30 30 30 29 29 28 27 27 26 25 22 16 16 13 15 9 13 12 11 9 9 10 7 7 7 9 5 5 2 4 3 4
25 25 24 19 14 15 19 16 22 19 21 20 24 24 27 31 31 31 32 32 32 31 29 29 28 28 25 25 21 19 16 15 13 11 9 9 11 10 10 10 7 9 4 8 3 3 3 2 2
25 25 23 23 19 20 23 18 11 21 19 19 22 27 28 29 32 33 34 33 32 31 30 29 31 30 27 26 24 22 20 15 13 11 10 12 10 11 10 9 10 6 5 8 7 3 2 2 2
24 25 24 24 18 16 23 18 20 16 18 19 24 28 28 29 30 32 32 32 33 33 32 30 32 33 30 28 26 28 21 20 14 14 11 9 10 10 12 12 10 7 7 6 3 4 3 4 6
28 24 16 19 18 20 25 19 23 18 18 18 19 26 29 29 29 31 33 34 33 35 35 33 34 35 33 30 29 27 30 22 21 14 15 12 12 12 14 14 12 9 8 7 5 5 6 3 3
31 29 19 25 17 20 25 24 21 19 12 18 20 19 26 29 31 33 34 35 35 35 37 37 36 37 35 32 31 30 27 25 22 21 16 15 14 13 16 16 13 11 8 7 7 5 4 5 4
30 28 28 27 24 19 21 19 22 7 18 19 16 22 18 28 30 35 35 36 36 37 40 41 38 38 39 34 34 33 32 30 25 23 23 19 18 14 17 16 15 12 11 9 8 5 8 8 8
32 24 26 23 28 27 24 22 17 19 16 17 19 19 18 21 27 34 36 37 37 37 39 39 40 39 39 37 36 35 36 35 32 29 27 23 19 22 20 19 16 14 13 10 6 6 9 10 10
21 27 23 25 24 21 20 19 21 18 18 20 22 29 22 24 26 29 34 36 39 38 38 39 39 40 39 38 38 36 37 33 35 34 32 28 26 25 20 22 19 17 15 8 7 8 12 11 12
27 29 32 17 28 20 22 19 14 17 15 12 19 22 27 22 24 27 30 34 37 41 39 39 38 38 38 38 39 40 39 38 36 36 34 33 31 29 27 26 24 23 22 20 19 17 12 13 14

GFSSGP_850_spd_024.txt.gz
Wind_Speed
15 10 17 10 3 3 3 7 16 11 13 15 16 12 11 3 2 11 17 21 22 22 24 24 26 25 25 25 26 26 25 23 20 18 17 15 14 14 13 13 13 13 12 12 13 13 13 13 13
16 15 21 17 4 5 5 17 18 5 19 32 25 15 19 21 29 26 25 24 22 22 21 23 23 23 23 24 24 23 23 20 18 16 14 13 13 12 12 12 12 11 10 11 12 12 12 12 12
14 19 8 7 4 4 6 10 16 20 14 11 17 17 14 25 23 23 27 28 25 22 18 21 21 21 21 21 21 21 20 18 16 14 11 10 10 10 10 11 10 9 10 11 11 11 11 11 11
8 20 20 13 16 9 14 13 14 16 22 21 26 20 30 24 28 30 29 25 22 19 18 19 20 21 21 20 19 19 18 17 14 12 9 8 9 9 9 8 9 9 9 10 11 11 10 10 11
15 9 8 4 16 16 11 25 21 9 27 30 31 25 29 27 29 28 24 21 21 18 19 18 19 19 19 19 19 19 17 15 12 10 10 8 7 7 7 8 8 7 9 10 10 11 10 10 11
16 16 15 3 9 12 11 17 14 21 25 30 29 24 25 30 32 25 22 21 18 18 17 19 19 18 18 17 18 17 15 13 12 11 9 7 6 6 6 7 7 7 9 9 9 10 10 9 10
18 13 15 8 9 9 10 4 18 18 21 24 29 17 28 26 26 22 22 20 21 19 15 18 19 18 17 17 17 15 14 13 11 9 6 5 6 7 8 8 10 9 9 9 9 10 9 9 11
17 13 21 3 13 12 8 16 7 14 24 24 25 16 21 28 28 24 25 27 24 21 13 14 16 17 17 18 16 15 13 12 9 6 4 6 6 5 9 9 12 12 10 10 11 9 9 10 12
20 2 13 9 14 15 11 12 14 20 18 20 12 26 29 25 25 25 34 27 21 18 17 15 13 14 12 17 16 12 11 9 6 5 6 4 2 4 2 10 13 12 13 11 13 12 11 9 10
10 6 6 17 5 12 12 15 16 13 16 10 28 28 28 26 25 29 27 22 22 20 17 16 17 15 12 11 12 10 7 5 4 3 3 4 6 4 5 9 9 8 12 11 9 6 3 5 9
16 6 16 33 19 17 13 19 13 22 13 16 34 30 28 27 24 23 25 22 19 20 21 19 16 15 14 18 5 4 3 0 2 1 3 1 5 2 7 5 9 10 9 8 8 7 10 12 11
12 19 31 18 11 11 13 20 13 15 18 22 25 28 29 27 25 23 24 22 26 20 22 22 22 18 16 18 4 6 9 2 8 8 5 8 2 1 5 6 8 7 7 7 7 14 8 7 8
17 26 25 7 11 10 11 16 18 9 24 22 25 29 29 27 24 22 21 22 21 20 16 26 21 18 21 13 10 12 11 10 7 9 9 7 3 6 8 8 8 8 3 6 6 7 8 8 7
20 12 15 4 10 8 16 17 16 17 18 24 25 29 28 27 26 24 23 23 24 21 19 21 20 18 25 22 14 15 14 7 12 7 12 10 7 9 7 8 10 6 6 7 10 11 9 5 5
25 18 7 9 11 10 13 17 12 23 18 23 24 27 28 27 26 26 24 24 23 23 22 22 19 20 19 23 17 20 11 11 8 10 6 8 12 13 15 12 10 6 9 8 11 7 4 6 10
22 18 13 19 15 13 16 8 14 25 21 23 25 27 28 27 27 26 25 24 24 23 24 23 19 19 17 18 17 16 10 12 15 10 11 11 14 12 13 9 5 7 8 9 15 6 5 9 7
22 17 19 9 13 16 16 9 10 19 20 25 25 26 27 27 27 27 26 26 26 25 25 25 22 22 21 16 17 13 14 16 14 13 11 12 10 13 12 5 9 8 9 12 8 3 4 3 5
21 21 18 16 17 18 14 14 12 30 24 25 26 27 27 28 28 29 27 27 26 26 27 25 24 21 24 18 14 16 14 15 15 14 14 14 11 10 13 5 11 14 14 5 5 2 8 8 4
23 20 24 12 7 17 18 19 21 36 30 24 27 26 28 28 28 29 28 28 27 27 28 29 27 27 21 22 21 21 21 20 18 13 11 10 13 13 14 14 11 7 4 5 3 9 5 4 1
27 27 24 15 24 24 17 27 29 28 23 25 27 28 27 28 29 30 30 29 30 30 31 30 31 30 31 24 21 15 11 11 13 10 15 16 13 11 11 7 4 2 2 5 9 11 3 3 4
28 27 22 16 20 22 18 19 21 22 24 25 25 30 29 30 31 34 32 32 32 34 33 34 33 32 30 26 20 21 18 15 9 11 13 13 11 12 10 12 9 7 9 6 6 4 3 0 1
26 26 26 22 17 12 16 13 12 16 22 21 26 26 33 33 33 33 35 35 34 34 35 33 32 31 31 28 23 19 19 13 12 11 12 16 8 4 11 8 9 10 8 6 3 2 4 4 3
26 26 26 25 21 16 22 8 15 21 18 24 21 29 28 34 33 34 37 37 35 34 35 35 32 31 31 29 30 23 20 15 15 13 16 11 11 13 13 12 12 11 11 9 9 8 7 4 2
25 24 25 22 19 15 20 14 21 20 24 22 24 31 31 29 35 36 35 37 40 37 37 38 37 35 31 31 30 29 21 22 17 15 17 17 21 16 17 12 16 11 14 9 6 5 5 10 9
28 25 15 18 17 17 22 23 15 19 23 21 10 26 34 33 32 37 37 39 43 42 40 39 41 38 35 33 31 30 28 24 24 20 20 14 14 14 14 19 18 13 14 11 9 6 8 4 9
25 25 16 20 17 19 23 21 15 24 22 20 35 55 38 36 32 35 39 39 42 45 43 41 42 41 37 34 37 31 32 30 30 26 20 21 18 18 17 17 15 14 14 18 12 10 8 4 5
27 25 26 26 23 17 18 23 23 18 19 24 32 14 19 39 37 37 38 40 38 43 46 46 42 41 40 36 36 36 32 38 34 33 25 19 20 18 23 22 22 18 17 16 13 13 12 15 9
29 19 24 20 26 25 21 21 12 19 20 22 18 27 22 30 34 35 35 38 39 39 44 45 46 43 42 40 37 38 37 36 38 33 31 29 23 21 23 26 26 23 21 19 17 15 14 9 8
20 23 24 22 20 17 17 16 16 16 24 22 20 28 31 24 27 36 38 38 40 38 40 44 45 45 44 42 39 39 40 38 36 36 34 34 31 29 25 27 27 24 23 22 20 18 15 13 10
28 28 28 17 22 18 18 16 13 14 14 20 17 22 24 21 25 30 37 39 41 43 41 44 43 45 46 45 42 41 41 40 41 40 39 39 36 35 36 35 33 29 27 25 23 19 23 19 14

GFSSGP_850_spd_030.txt.gz
Wind_Speed
13 11 4 3 2 2 2 1 4 5 2 5 8 12 11 12 2 6 20 26 28 29 27 27 29 32 32 30 28 27 25 23 21 20 19 18 16 15 14 13 12 13 13 13 12 12 12 13 13
17 8 0 1 2 1 2 1 5 3 8 18 17 14 13 7 14 23 28 27 30 30 28 27 28 29 30 28 26 24 23 20 19 19 18 16 15 14 13 12 12 12 12 12 11 12 12 13 12
15 4 4 3 2 3 3 2 11 9 17 4 8 15 7 9 27 31 29 30 29 30 28 26 26 27 28 27 25 23 21 19 18 17 16 15 14 13 12 12 11 12 12 13 12 13 14 13 12
12 6 3 2 9 5 3 15 18 14 9 8 21 12 12 6 22 28 31 29 30 29 27 26 25 26 27 26 23 21 19 17 16 15 14 14 12 12 12 12 11 11 12 12 13 13 15 15 14
18 5 1 8 9 4 12 22 21 10 10 21 20 11 12 17 30 32 29 29 29 28 27 26 25 25 26 25 22 20 18 16 14 13 13 13 12 13 13 13 12 11 11 12 14 15 14 14 14
5 1 3 4 8 6 15 31 27 20 21 26 23 19 9 31 30 28 26 25 24 26 26 25 24 24 24 23 22 20 17 15 14 13 12 12 13 12 16 14 12 11 12 11 13 15 15 13 14
7 2 7 9 3 15 23 33 27 23 22 10 25 10 21 30 31 27 23 21 22 24 25 25 25 24 23 22 21 19 16 14 14 13 11 11 12 13 11 13 13 12 12 10 12 13 14 13 10
13 3 4 5 13 9 18 17 30 37 17 27 33 9 21 36 32 27 24 22 22 23 24 25 24 23 22 22 21 19 16 15 13 11 10 10 10 11 11 12 14 13 12 10 12 13 11 10 9
10 3 3 4 7 6 30 17 23 17 34 21 7 30 38 38 34 32 27 23 24 23 24 24 24 22 22 21 20 17 16 14 12 10 9 9 11 8 8 11 12 12 11 10 11 9 7 6 6
7 3 6 6 5 1 28 32 25 17 29 10 22 32 39 41 39 37 32 29 26 25 25 24 24 23 23 21 19 17 15 12 11 10 9 9 7 6 5 4 8 8 6 8 6 6 3 4 4
9 6 6 8 16 9 30 32 31 33 17 33 36 39 41 42 39 40 35 28 27 22 26 26 25 24 23 21 18 15 13 11 10 9 5 5 7 6 4 5 8 6 3 6 6 7 5 3 4
4 14 16 6 7 15 22 33 27 34 20 41 42 45 47 41 38 42 37 32 28 25 25 25 25 25 23 19 14 13 12 14 14 9 5 6 8 6 2 2 4 2 2 3 4 6 4 5 2
5 6 25 22 14 18 23 24 24 20 35 39 41 46 46 45 45 40 37 32 30 27 23 25 24 24 23 20 14 17 14 13 11 10 6 5 7 5 3 1 0 2 2 5 3 6 2 4 6
11 21 23 25 23 13 14 9 14 27 38 39 42 46 44 44 48 42 40 36 33 26 25 25 23 24 25 21 17 16 13 11 10 10 6 8 11 6 5 5 4 4 3 3 4 3 3 4 2
13 6 14 18 17 4 24 6 15 39 43 42 40 42 42 46 47 44 41 37 31 29 27 27 25 25 22 19 17 15 16 15 12 14 10 10 9 6 6 9 10 8 6 5 2 3 4 3 3
3 3 4 14 18 15 16 10 22 42 42 37 36 37 38 46 47 45 40 36 33 31 31 28 29 27 24 24 24 20 14 13 13 11 10 9 8 7 6 6 9 9 5 6 5 5 7 5 4
2 5 7 11 9 16 5 4 25 38 39 35 37 37 38 39 38 46 42 37 34 31 31 30 32 31 27 27 26 24 24 19 15 13 11 12 10 9 7 6 7 10 7 6 9 6 3 4 7
5 3 6 6 2 17 5 8 22 36 37 37 37 38 38 41 40 34 39 38 35 33 31 27 32 33 28 23 27 28 25 25 20 15 13 16 11 11 8 8 6 8 5 7 5 4 4 7 3
4 5 8 11 4 4 17 19 20 34 33 33 35 37 39 46 44 39 36 34 39 36 34 31 34 35 29 26 23 25 31 29 26 22 19 15 16 13 9 12 10 10 5 2 8 6 7 7 4
9 13 17 9 10 8 10 20 19 25 32 42 39 38 40 41 44 46 43 39 42 40 36 33 32 33 31 28 27 23 16 25 24 19 17 17 18 14 11 10 8 13 10 8 9 6 4 10 7
15 16 15 9 7 1 8 3 4 10 22 29 37 43 44 46 47 49 49 48 45 44 42 39 35 36 34 30 26 25 18 18 21 22 20 20 19 14 12 11 10 14 15 12 10 7 9 10 8
13 15 14 8 4 7 6 4 6 10 9 14 30 36 40 43 48 51 52 54 51 49 45 42 39 38 38 32 29 31 28 23 25 24 18 18 16 17 15 15 14 15 15 15 9 8 11 12 10
14 12 10 10 6 4 4 4 7 9 11 11 22 39 41 47 50 52 55 57 56 52 48 45 42 40 39 36 35 33 31 23 25 20 16 19 19 20 16 13 18 15 15 13 11 8 11 14 12
14 7 8 3 5 8 14 13 6 11 12 17 22 33 45 45 50 55 57 56 57 55 52 49 46 44 41 39 35 35 34 28 29 25 20 20 17 21 20 15 14 15 16 16 11 9 9 14 12
11 7 5 7 8 10 10 6 12 18 19 24 23 34 44 48 48 51 49 51 56 58 56 53 50 48 45 42 37 33 33 31 29 29 24 22 22 25 22 18 17 17 16 15 14 12 11 14 16
9 16 9 10 4 5 6 9 13 15 22 39 44 41 40 45 50 52 58 60 61 60 59 57 54 51 48 45 40 34 31 34 31 29 30 27 26 23 19 19 19 18 18 17 16 12 12 13 17
10 10 12 6 3 2 4 7 6 10 12 25 34 36 39 48 49 56 61 62 62 62 62 60 57 53 50 47 42 37 33 35 36 32 29 29 25 22 19 20 18 20 20 17 17 15 14 14 15
18 7 4 2 15 17 5 6 8 8 14 14 22 33 43 45 51 53 53 61 62 61 62 60 58 56 51 48 44 38 35 35 39 35 36 33 28 25 24 23 22 19 20 17 17 17 17 15 14
11 11 3 6 8 12 7 16 9 10 10 14 22 41 45 45 49 52 57 59 62 61 60 61 59 57 55 50 46 41 36 36 38 41 38 38 35 31 31 29 27 25 24 23 22 20 20 19 16
20 15 11 9 7 6 16 25 3 10 9 10 24 41 47 38 44 47 53 52 54 56 57 60 59 58 56 51 47 44 39 37 38 41 43 41 41 39 35 32 31 28 27 28 26 23 24 25 21

GFSSGP_850_spd_033.txt.gz
Wind_Speed
9 8 5 2 1 0 2 2 2 5 3 2 6 6 9 7 2 4 29 29 30 33 31 30 30 29 29 28 28 26 24 22 20 19 18 16 14 13 12 12 12 13 12 13 13 13 12 10 10
12 6 1 2 3 3 3 2 3 4 12 20 16 10 8 5 10 26 27 31 31 29 29 31 31 29 30 28 26 25 23 21 19 18 17 15 13 12 12 11 13 13 13 12 12 12 11 11 9
9 3 4 2 2 2 3 3 7 11 13 5 6 11 5 4 18 31 33 33 31 29 29 32 30 29 28 26 24 23 21 20 18 17 15 13 13 11 11 12 13 13 14 13 13 12 11 9 9
4 5 4 2 4 5 4 4 10 12 7 5 18 9 9 4 22 27 33 33 31 29 28 29 29 29 26 24 22 21 19 18 17 16 14 13 12 11 12 12 13 14 15 12 13 13 12 10 9
5 6 3 4 7 4 1 8 12 6 7 15 8 8 12 10 23 31 32 31 30 28 27 26 27 28 26 23 21 19 18 16 15 14 13 12 12 13 13 12 12 12 12 12 11 12 12 10 9
6 5 1 3 6 6 5 14 13 12 16 19 18 14 6 16 28 30 30 31 29 28 26 25 25 26 25 23 20 18 16 15 14 14 12 12 14 14 13 12 11 11 12 11 11 11 11 10 8
5 5 5 3 6 4 5 16 11 16 16 9 16 5 16 28 27 29 29 28 27 26 25 26 25 25 24 22 20 18 16 14 14 13 12 13 12 11 12 12 11 9 10 10 10 11 10 9 9
7 2 2 6 5 3 12 16 19 17 8 23 24 7 15 33 31 28 25 24 24 25 25 25 25 24 23 22 20 18 15 15 14 12 12 12 13 12 12 12 12 10 9 10 10 10 7 6 9
5 1 4 6 10 5 18 8 17 8 21 8 10 18 36 36 31 29 26 24 25 25 25 25 25 24 24 22 21 18 16 15 13 12 11 10 9 9 11 10 9 10 9 8 6 6 5 3 6
6 4 6 5 8 15 22 20 22 8 19 3 10 23 40 36 34 33 31 30 29 28 27 26 25 25 23 23 21 19 17 15 12 11 11 10 7 6 6 6 6 6 7 4 4 2 2 2 5
6 6 4 5 12 31 28 18 16 21 10 14 32 42 42 41 36 34 32 31 30 27 27 27 26 24 23 23 21 19 17 14 12 12 11 8 8 6 6 8 6 6 3 5 5 5 2 0 2
5 19 19 7 9 28 19 23 7 28 16 32 41 46 48 42 40 37 34 31 31 30 28 27 26 25 24 22 20 18 17 14 13 11 10 9 8 7 4 4 4 2 3 3 3 3 1 2 2
9 19 14 8 9 29 27 26 15 30 10 33 40 45 46 44 42 37 35 30 30 30 29 29 28 26 24 23 20 17 16 14 15 11 8 10 9 6 4 3 1 1 1 2 3 5 3 3 3
8 22 23 18 14 26 17 17 16 26 28 35 43 43 43 43 41 39 36 35 34 30 30 29 28 27 26 24 20 19 15 16 15 12 9 9 10 8 3 6 4 2 3 2 5 4 1 5 1
15 8 6 10 10 12 22 10 19 27 37 36 41 41 43 43 41 40 38 37 33 29 28 29 29 27 27 25 20 22 18 16 16 13 11 10 10 8 5 6 6 5 7 5 5 4 4 5 5
3 1 2 7 8 9 22 20 16 36 38 34 35 38 39 42 43 40 38 36 33 30 30 27 27 28 28 27 23 21 18 16 17 16 17 14 11 10 6 6 8 11 8 6 7 6 6 8 7
4 4 6 9 9 6 10 5 11 37 37 34 36 37 38 37 42 42 40 38 35 33 31 32 29 28 29 27 24 23 18 18 18 18 16 13 10 11 7 8 7 9 11 10 8 10 6 6 7
5 4 5 6 3 8 7 6 19 32 36 35 37 37 37 38 48 47 44 40 36 35 34 33 32 30 28 26 27 25 24 21 19 18 15 12 10 10 9 9 7 7 10 9 9 6 8 6 8
4 3 5 3 1 2 4 7 21 30 28 30 33 35 38 42 48 49 45 42 39 38 37 36 37 33 31 32 30 31 30 27 25 21 17 13 13 12 11 11 11 10 10 6 8 8 9 8 7
6 7 13 3 7 4 7 10 19 23 33 42 40 38 39 39 35 47 47 45 44 42 40 39 39 34 32 33 30 29 28 31 29 27 24 18 15 17 15 13 11 10 12 10 9 11 9 9 9
6 10 11 9 2 3 5 2 12 21 20 24 31 40 41 42 44 44 46 45 46 47 44 42 40 37 34 32 31 29 26 25 30 31 28 23 19 16 15 15 13 11 14 14 11 11 9 11 9
9 7 7 5 4 3 6 4 7 17 18 17 25 32 37 40 43 46 50 48 48 48 46 43 42 38 36 37 34 33 31 30 25 26 27 22 21 19 17 17 16 14 14 16 13 11 7 11 10
10 6 6 3 4 1 5 0 6 17 19 21 23 35 39 43 46 50 54 56 53 50 50 47 43 41 38 37 37 35 34 31 26 24 25 22 23 19 20 19 17 17 16 17 15 11 8 12 12
4 3 4 1 3 6 16 8 7 12 25 24 26 38 43 43 47 52 56 57 57 53 52 50 48 46 42 39 38 38 36 32 30 25 27 26 22 22 22 20 18 17 18 17 14 11 10 12 14
5 7 3 3 4 10 9 6 14 9 21 26 25 40 46 47 47 52 53 47 52 56 57 55 53 51 47 44 40 39 38 33 30 28 29 26 25 26 24 23 20 16 16 15 14 13 13 11 13
8 13 6 7 3 6 4 9 8 15 16 30 41 46 47 45 48 52 58 57 58 59 60 59 57 55 52 49 45 41 38 34 30 29 28 32 29 26 23 23 20 17 15 15 15 15 14 13 14
6 11 12 3 2 2 5 8 5 9 11 12 21 26 37 44 48 52 60 58 58 60 61 63 62 59 56 52 48 45 41 37 34 29 29 34 31 27 25 22 20 18 17 17 16 15 15 14 13
14 8 4 2 11 12 4 7 7 11 17 11 13 20 34 42 45 53 54 60 58 58 60 61 61 61 58 54 50 47 42 40 37 30 33 34 36 32 28 26 23 20 19 20 18 16 17 17 15
5 8 3 6 6 7 3 11 8 10 13 12 15 27 37 42 48 54 56 51 57 59 58 60 60 60 60 56 52 49 45 43 41 34 35 36 34 32 31 28 26 21 21 21 21 18 18 19 19
15 11 9 5 12 8 13 11 3 17 14 9 15 27 37 46 46 44 53 51 51 53 57 60 58 59 59 58 53 49 45 45 44 38 37 40 38 36 33 30 29 26 25 25 25 22 21 21 22

GFSSGP_850_spd_036.txt.gz
Wind_Speed
11 9 6 1 1 1 2 1 3 4 3 1 6 2 7 6 2 4 24 30 35 32 29 26 25 27 29 29 29 26 23 20 18 17 15 14 13 13 12 11 11 11 11 10 10 10 10 10 9
11 7 2 1 1 1 3 1 6 3 7 19 13 10 6 4 7 22 27 31 32 29 28 26 26 28 31 29 26 23 21 19 17 16 15 14 13 12 13 12 11 13 12 11 10 8 9 10 9
10 2 4 3 2 0 3 3 5 13 10 4 6 9 4 4 13 31 32 32 32 31 28 27 27 27 28 26 24 22 19 17 16 15 14 13 12 12 12 12 13 13 12 11 10 8 8 9 9
2 3 2 2 2 3 3 6 17 11 6 3 16 8 7 4 28 27 35 33 30 30 28 29 28 27 26 24 22 20 18 16 15 15 13 12 12 12 12 13 13 12 11 11 9 7 7 8 8
2 2 3 2 3 2 1 15 13 6 5 9 3 5 12 9 16 34 34 30 30 30 30 29 27 26 24 22 20 18 17 15 14 14 12 12 12 12 12 12 12 11 10 10 9 8 7 7 6
1 1 3 2 3 5 2 16 12 9 10 12 14 13 6 8 30 35 33 31 30 31 30 29 27 25 23 21 19 17 15 14 14 13 12 13 12 12 10 10 10 10 10 9 9 9 9 9 9
2 2 2 3 3 4 4 12 9 9 13 9 16 5 10 21 31 33 31 29 28 29 29 28 28 25 22 20 18 16 15 13 13 12 12 12 12 11 10 9 9 9 9 9 8 8 10 10 9
3 2 1 5 2 4 9 8 14 12 4 20 20 8 11 31 31 31 30 29 27 26 26 27 27 25 23 20 18 16 14 14 13 12 12 11 11 10 10 10 9 8 8 10 8 7 8 10 10
3 4 4 3 5 3 16 5 12 5 17 6 8 15 30 36 33 33 32 30 27 25 25 25 25 24 23 21 19 17 14 14 13 12 11 9 10 9 8 7 8 8 8 7 5 5 6 8 7
3 3 7 6 5 6 16 11 16 5 15 4 8 14 38 38 37 36 35 33 30 28 26 25 25 24 23 22 20 18 15 15 13 11 9 9 7 7 4 3 4 6 5 5 2 3 2 6 6
7 6 5 5 10 16 18 13 15 12 8 14 24 34 42 40 37 36 34 32 32 29 27 27 25 24 24 23 21 19 16 15 13 12 11 8 6 5 4 5 5 4 4 4 4 2 2 2 5
4 16 9 10 11 13 13 17 12 20 6 23 24 42 46 42 40 37 34 32 31 30 28 27 26 25 24 23 21 19 17 15 13 12 11 8 8 5 5 4 2 3 4 4 2 2 2 3 2
7 10 5 14 7 22 17 20 16 22 10 16 30 44 46 43 39 35 32 30 29 30 29 28 26 26 24 23 21 20 18 15 13 12 11 11 10 6 4 3 1 2 1 3 3 4 2 1 6
6 16 21 10 15 12 16 11 10 17 9 23 35 39 43 43 40 36 34 33 32 30 29 28 27 25 24 23 22 20 18 15 15 12 10 10 9 7 4 6 5 2 2 4 4 3 1 4 2
12 6 3 9 15 7 14 3 12 9 20 30 35 34 37 41 39 38 35 34 32 31 30 30 28 27 26 24 22 20 18 18 17 12 10 9 10 8 5 5 6 5 4 4 5 5 2 6 4
3 1 1 1 9 8 18 13 17 20 30 28 33 32 34 37 39 35 34 33 32 31 30 29 30 29 27 26 23 22 20 19 16 16 14 12 12 9 8 6 6 9 10 6 7 8 8 6 4
5 4 5 5 12 5 9 7 16 33 34 30 31 34 35 35 38 37 35 35 33 30 28 29 30 30 29 27 25 23 23 20 17 17 17 17 14 11 9 6 7 8 8 10 8 9 10 5 5
6 4 4 5 2 4 9 13 5 33 35 34 34 33 35 36 44 38 37 36 35 31 28 29 29 28 28 27 28 26 24 20 17 17 18 16 13 12 8 7 8 8 7 9 10 10 5 4 8
5 4 4 2 2 4 7 6 9 23 26 28 33 34 36 42 44 39 38 38 36 35 33 32 31 30 29 32 32 31 29 25 21 19 18 16 13 12 9 11 10 9 9 9 10 8 6 6 5
5 5 8 4 6 2 4 8 10 17 29 37 36 33 38 38 36 42 41 41 41 38 36 35 34 34 33 33 30 30 29 28 26 23 21 18 15 12 13 12 11 11 10 11 9 7 9 10 7
5 13 6 5 4 2 4 6 7 13 5 22 27 36 34 36 40 42 44 45 44 44 42 40 37 36 37 36 33 31 30 30 30 29 27 24 21 17 17 16 13 13 12 11 10 8 8 8 8
9 6 6 7 4 4 3 5 5 13 20 16 24 31 34 41 40 41 44 47 47 46 44 43 42 40 38 37 37 35 32 30 29 29 30 30 27 22 18 16 16 16 14 11 12 11 8 7 10
8 8 9 6 6 2 3 1 6 10 14 17 22 32 37 41 44 47 47 48 49 46 45 44 44 43 41 39 38 36 35 30 26 23 22 24 25 24 21 20 19 18 16 12 12 12 10 8 10
8 4 6 5 4 7 10 9 5 8 19 20 21 32 37 39 44 47 48 48 50 49 48 47 47 47 46 43 41 41 38 34 29 27 25 24 26 26 24 21 21 19 16 15 13 13 12 8 11
7 8 2 2 3 11 8 8 14 10 16 22 25 38 42 43 43 47 50 47 51 52 52 49 49 50 49 47 44 41 39 37 30 28 28 26 29 28 27 24 23 20 15 15 15 15 13 11 9
9 9 6 8 4 7 7 9 7 11 16 29 33 42 39 38 44 49 58 55 55 53 53 54 52 51 52 49 47 43 40 38 33 31 27 28 31 28 25 25 23 19 15 16 16 16 15 13 12
6 11 11 5 2 2 5 6 6 5 11 16 28 29 34 40 44 51 55 59 58 57 55 56 54 53 52 51 49 47 44 41 37 33 30 31 30 31 27 26 23 19 18 18 17 17 17 15 13
10 9 4 1 6 6 5 4 6 10 13 14 9 23 33 38 44 48 53 54 59 60 57 55 55 53 51 50 52 51 47 43 38 34 33 31 31 31 33 29 26 23 21 20 20 18 18 18 16
4 6 3 6 6 7 0 6 8 10 14 18 19 31 37 41 47 51 55 57 55 56 57 56 55 55 55 53 53 53 51 48 44 39 34 33 32 32 34 33 29 27 24 22 24 21 20 21 19
21 9 7 6 8 6 4 7 4 10 11 13 20 28 39 37 39 44 49 49 47 53 55 55 55 53 55 53 52 53 51 50 47 43 37 35 33 34 34 37 35 31 28 25 25 24 23 22 22